Erie, PA

8:31 AM EDT on March 25, 2017 (GMT -0400)
Erie International

Weather History for KERI - February, 2013

Change the Weather History Date:

Saturday, February 2, 2013

  Actual Average Record
Temperature  
Mean Temperature 17 °F 27 °F  
Max Temperature 22 °F 34 °F 61 °F (1903)
Min Temperature 12 °F 20 °F -7 °F (1971)
Degree Days  
Heating Degree Days 48 38  
Month to date heating degree days 94 76  
Since 1 July heating degree days 3134 3414  
Cooling Degree Days 0 0  
Month to date cooling degree days 0 0  
Year to date cooling degree days 0 0  
Moisture  
Dew Point 12 °F    
Average Humidity 77    
Maximum Humidity 92    
Minimum Humidity 61    
Precipitation  
Precipitation 0.21 in 0.09 in 0.75 in (1990)
Month to date precipitation 0.37 0.17  
Year to date precipitation 3.67 3.12  
Snow  
Snow 3.60 in 0.80 in - ()
Month to date snowfall 6.8 1.6  
Since 1 July snowfall 59.0 67.4  
Snow Depth 2.00 in    
Sea Level Pressure  
Sea Level Pressure 30.05 in    
Wind  
Wind Speed 12 mph (South)    
Max Wind Speed 23 mph    
Max Gust Speed 30 mph    
Visibility 3 miles    
Events Fog , Snow    
T = Trace of Precipitation, MM = Missing Value Source: NWS Daily Summary

Daily Weather History Graph

Daily Weather History Graph

Search for Another Location

Airport or City:

Trip Planner

Search our weather history database for the weather conditions in past years. The results will help you decide how hot, cold, wet, or windy it might be!

Date:

Astronomy

Feb. 02, 2013 Rise Set
Actual Time 7:32 AM EST 5:37 PM EST
Civil Twilight 7:02 AM EST 6:06 PM EST
Nautical Twilight 6:29 AM EST 6:40 PM EST
Astronomical Twilight 5:56 AM EST 7:12 PM EST
Moon No Moon Rise 10:33 AM EST (2/2)
Length of Visible Light 11h 03m
Length of Day
10h 04m
Waning Gibbous, 60% of the Moon is Illuminated
Feb 2
Waning Gibbous
Feb 3
Last Quarter
Feb 10
New
Feb 17
First Quarter
Feb 25
Full

Hourly Weather History & Observations

Time (EST) Temp. Windchill Dew Point Humidity Pressure Visibility Wind Dir Wind Speed Gust Speed Precip Events Conditions
12:51 AM 15.1 °F -1.1 °F 5.0 °F 64% 30.27 in 5.0 mi SSW 17.3 mph 28.8 mph N/A   Haze
1:51 AM 14.0 °F -2.5 °F 3.9 °F 64% 30.25 in 7.0 mi SSW 17.3 mph 26.5 mph N/A   Overcast
2:51 AM 14.0 °F -3.0 °F 3.9 °F 64% 30.25 in 10.0 mi SSW 18.4 mph 23.0 mph N/A   Overcast
3:51 AM 14.0 °F -2.0 °F 3.0 °F 62% 30.24 in 10.0 mi SSW 16.1 mph - N/A   Overcast
4:51 AM 14.0 °F -0.8 °F 3.9 °F 64% 30.22 in 10.0 mi SSW 13.8 mph - N/A   Overcast
5:51 AM 14.0 °F -2.5 °F 3.9 °F 64% 30.20 in 10.0 mi SSW 17.3 mph 25.3 mph N/A   Overcast
6:51 AM 12.9 °F -2.8 °F 3.9 °F 67% 30.18 in 5.0 mi South 15.0 mph - N/A   Haze
7:41 AM 12.2 °F -3.7 °F 3.2 °F 67% 30.12 in 2.5 mi South 15.0 mph 23.0 mph 0.00 in Snow Light Snow
7:51 AM 12.0 °F -3.4 °F 5.0 °F 73% 30.17 in 2.5 mi South 13.8 mph - 0.00 in Snow Light Snow
8:34 AM 12.2 °F -4.3 °F 6.8 °F 79% 30.12 in 1.0 mi South 16.1 mph - 0.00 in Snow Light Snow
8:51 AM 12.9 °F -2.2 °F 7.0 °F 77% 30.16 in 1.5 mi South 13.8 mph 23.0 mph 0.00 in Snow Light Snow
9:02 AM 12.2 °F -5.3 °F 6.8 °F 79% 30.11 in 1.5 mi South 18.4 mph 25.3 mph 0.00 in Snow Light Snow
9:51 AM 14.0 °F -2.5 °F 7.0 °F 74% 30.13 in 1.5 mi South 17.3 mph 23.0 mph 0.01 in Snow Light Snow
10:03 AM 14.0 °F -2.5 °F 8.6 °F 79% 30.09 in 0.8 mi South 17.3 mph - 0.00 in Snow Light Snow
10:17 AM 14.0 °F -0.8 °F 8.6 °F 79% 30.08 in 0.5 mi South 13.8 mph - 0.00 in Snow Snow
10:26 AM 14.0 °F -1.4 °F 8.6 °F 79% 30.08 in 0.8 mi South 15.0 mph 20.7 mph 0.01 in Snow Light Snow
10:33 AM 15.8 °F 1.4 °F 8.6 °F 73% 30.08 in 1.2 mi South 13.8 mph - 0.01 in Snow Light Snow
10:51 AM 15.1 °F 1.1 °F 9.0 °F 77% 30.12 in 1.5 mi South 12.7 mph - 0.01 in Snow Light Snow
11:24 AM 15.8 °F 1.4 °F 8.6 °F 73% 30.07 in 0.8 mi South 13.8 mph - 0.00 in Snow Light Snow
11:38 AM 15.8 °F 0.3 °F 10.4 °F 79% 30.06 in 1.0 mi South 16.1 mph - 0.01 in Snow Light Snow
11:48 AM 15.8 °F -0.2 °F 10.4 °F 79% 30.05 in 0.8 mi South 17.3 mph 23.0 mph 0.01 in Snow Light Snow
11:51 AM 16.0 °F 2.3 °F 10.0 °F 77% 30.09 in 1.0 mi South 12.7 mph 23.0 mph 0.01 in Snow Light Snow
12:51 PM 17.1 °F 3.0 °F 10.9 °F 77% 30.05 in 1.0 mi South 13.8 mph - 0.01 in Snow Light Snow
1:19 PM 17.6 °F 5.7 °F 12.2 °F 79% 30.00 in 1.0 mi SSW 10.4 mph - 0.01 in Snow Light Snow
1:37 PM 17.6 °F 4.3 °F 12.2 °F 79% 29.99 in 1.0 mi South 12.7 mph - 0.02 in Snow Light Snow
1:51 PM 18.0 °F 4.8 °F 12.0 °F 78% 30.02 in 1.0 mi South 12.7 mph - 0.02 in Snow Light Snow
2:23 PM 17.6 °F 4.3 °F 12.2 °F 79% 29.98 in 0.8 mi SSW 12.7 mph - 0.00 in Snow Light Snow
2:51 PM 18.0 °F 6.1 °F 12.9 °F 81% 30.01 in 0.8 mi SSW 10.4 mph - 0.01 in Snow Light Snow
3:46 PM 19.4 °F 8.6 °F 14.0 °F 80% 29.97 in 1.2 mi SSW 9.2 mph - 0.01 in Snow Light Snow
3:51 PM 19.0 °F 8.2 °F 14.0 °F 81% 30.01 in 1.2 mi SSW 9.2 mph - 0.02 in Snow Light Snow
4:13 PM 19.4 °F 10.4 °F 14.0 °F 80% 29.96 in 2.0 mi SSW 6.9 mph - 0.00 in Snow Light Snow
4:23 PM 19.4 °F 9.5 °F 14.0 °F 80% 29.96 in 4.0 mi South 8.1 mph - 0.00 in Snow Light Snow
4:51 PM 19.9 °F 9.3 °F 14.0 °F 78% 30.00 in 10.0 mi South 9.2 mph - 0.00 in   Overcast
5:18 PM 19.4 °F 8.6 °F 14.0 °F 80% 29.95 in 1.2 mi South 9.2 mph - N/A   Haze
5:23 PM 19.4 °F 7.9 °F 14.0 °F 80% 29.95 in 3.0 mi South 10.4 mph - N/A   Haze
5:51 PM 19.9 °F 9.3 °F 14.0 °F 78% 29.99 in 8.0 mi South 9.2 mph - 0.00 in Snow Light Snow
6:51 PM 21.0 °F 9.9 °F 14.0 °F 74% 29.99 in 10.0 mi South 10.4 mph - 0.00 in   Overcast
7:27 PM 21.2 °F 10.1 °F 15.8 °F 80% 29.95 in 4.0 mi SSW 10.4 mph - 0.00 in Snow Light Snow
7:39 PM 21.2 °F 10.9 °F 15.8 °F 80% 29.95 in 2.5 mi SSW 9.2 mph - 0.00 in Snow Light Snow
7:51 PM 21.2 °F 11.7 °F 15.8 °F 80% 29.95 in 2.0 mi SSW 8.1 mph - N/A Snow Light Snow
8:28 PM 21.2 °F 11.7 °F 17.6 °F 86% 29.95 in 1.8 mi SSW 8.1 mph - 0.00 in Snow Light Snow
8:51 PM 21.2 °F 12.6 °F 17.6 °F 86% 29.95 in 1.8 mi SSW 6.9 mph - N/A Snow Light Snow
9:14 PM 21.2 °F 13.6 °F 17.6 °F 86% 29.96 in 0.8 mi West 5.8 mph - 0.00 in Snow Light Snow
9:23 PM 21.2 °F 14.9 °F 17.6 °F 86% 29.96 in 0.5 mi West 4.6 mph - 0.01 in Fog , Snow Snow
9:37 PM 21.2 °F 14.9 °F 19.4 °F 93% 29.96 in 1.0 mi West 4.6 mph - 0.02 in Snow Light Snow
9:51 PM 21.9 °F 15.7 °F 19.0 °F 89% 30.00 in 1.0 mi NNE 4.6 mph - 0.03 in Snow Light Snow
10:15 PM 21.2 °F 11.7 °F 19.4 °F 93% 29.96 in 0.8 mi NNE 8.1 mph - 0.01 in Snow Light Snow
10:26 PM 21.2 °F 10.9 °F 17.6 °F 86% 29.96 in 0.8 mi NNE 9.2 mph - 0.01 in Snow Light Snow
10:35 PM 21.2 °F 10.9 °F 17.6 °F 86% 29.96 in 1.0 mi NNE 9.2 mph - 0.02 in Snow Light Snow
10:51 PM 21.0 °F 12.4 °F 17.1 °F 85% 29.99 in 1.2 mi NNE 6.9 mph - 0.02 in Snow Light Snow
11:20 PM 21.2 °F 12.6 °F 17.6 °F 86% 29.95 in 2.0 mi NNE 6.9 mph - 0.01 in Snow Light Snow
11:44 PM 21.2 °F 14.9 °F 17.6 °F 86% 29.95 in 2.5 mi NE 4.6 mph - 0.01 in Snow Light Snow
11:51 PM 19.9 °F 14.9 °F 16.0 °F 85% 30.00 in 2.5 mi ENE 3.5 mph - 0.01 in Snow Light Snow
11:59 PM 19.4 °F 14.3 °F 15.8 °F 86% 29.96 in 2.0 mi NE 3.5 mph - 0.00 in Snow Light Snow